TimeCST,TemperatureF,Dew PointF,Humidity,Sea Level PressureIn,VisibilityMPH,Wind Direction,Wind SpeedMPH,Gust SpeedMPH,PrecipitationIn,Events,Conditions,WindDirDegrees,DateUTC
12:53 AM,30.9,28.9,92,29.68,10.0,ESE,11.5,23.0,0.00,,Overcast,110,2013-02-21 06:53:00
1:53 AM,30.9,28.9,92,29.65,10.0,East,12.7,21.9,N/A,,Overcast,90,2013-02-21 07:53:00
2:53 AM,30.9,28.9,92,29.65,10.0,ESE,12.7,-,0.00,,Overcast,120,2013-02-21 08:53:00
3:53 AM,30.9,28.9,92,29.64,10.0,East,5.8,-,N/A,,Overcast,100,2013-02-21 09:53:00
4:53 AM,30.9,28.0,89,29.66,10.0,ESE,6.9,-,0.00,Snow,Light Snow,120,2013-02-21 10:53:00
5:26 AM,30.2,28.4,93,29.64,1.8,East,5.8,-,0.01,Snow,Light Snow,100,2013-02-21 11:26:00
5:53 AM,30.9,28.9,92,29.65,1.5,East,3.5,-,0.02,Snow,Light Snow,100,2013-02-21 11:53:00
6:18 AM,30.2,28.4,93,29.62,2.0,East,6.9,-,0.01,Snow,Light Snow,80,2013-02-21 12:18:00
6:26 AM,30.2,28.4,93,29.61,3.0,ENE,5.8,-,0.02,Snow,Light Snow,70,2013-02-21 12:26:00
6:53 AM,30.0,28.0,92,29.63,3.0,ENE,8.1,-,0.02,Snow,Light Snow,60,2013-02-21 12:53:00
7:04 AM,30.2,26.6,86,29.62,2.0,ENE,9.2,-,0.01,Snow,Light Snow,60,2013-02-21 13:04:00
7:20 AM,28.4,26.6,93,29.62,2.5,NE,11.5,-,0.01,Snow,Light Snow,40,2013-02-21 13:20:00
7:27 AM,28.4,26.6,93,29.61,4.0,NE,12.7,-,0.01,Snow,Light Snow,40,2013-02-21 13:27:00
7:53 AM,28.9,27.0,92,29.65,9.0,NE,10.4,-,0.01,,Overcast,40,2013-02-21 13:53:00
8:14 AM,28.4,26.6,93,29.63,1.8,NE,9.2,-,0.00,Snow,Light Snow,40,2013-02-21 14:14:00
8:36 AM,28.4,26.6,93,29.64,0.8,NE,8.1,-,0.02,Snow,Light Snow,40,2013-02-21 14:36:00
8:53 AM,28.9,26.1,89,29.70,0.8,East,6.9,-,0.03,Snow,Light Snow,80,2013-02-21 14:53:00
9:01 AM,28.4,26.6,93,29.68,0.5,East,6.9,-,0.01,Fog-Snow,Snow,80,2013-02-21 15:01:00
9:09 AM,26.6,24.8,93,29.67,0.2,ENE,13.8,18.4,0.03,Fog-Snow,Heavy Snow,70,2013-02-21 15:09:00
9:26 AM,24.8,21.2,86,29.65,0.2,NE,15.0,-,0.05,Fog-Snow,Heavy Snow,50,2013-02-21 15:26:00
9:32 AM,24.8,23.0,93,29.65,0.5,NE,17.3,-,0.05,Fog-Snow,Snow,40,2013-02-21 15:32:00
9:53 AM,24.1,21.9,91,29.68,0.5,NE,16.1,-,0.08,Fog-Snow,Snow,50,2013-02-21 15:53:00
10:12 AM,24.8,21.2,86,29.66,0.2,NE,13.8,19.6,0.01,Fog-Snow,Heavy Snow,40,2013-02-21 16:12:00
10:29 AM,24.8,21.2,86,29.67,0.2,NNE,18.4,24.2,0.03,Fog,Light Freezing Fog,30,2013-02-21 16:29:00
10:53 AM,21.9,19.0,89,29.73,0.2,NNE,15.0,-,0.05,Fog,Light Freezing Fog,20,2013-02-21 16:53:00
11:32 AM,21.2,17.6,86,29.71,0.5,NNE,16.1,-,0.08,Fog,Light Freezing Fog,20,2013-02-21 17:32:00
11:53 AM,21.0,17.1,85,29.77,0.5,NNE,18.4,-,0.10,Fog,Light Freezing Fog,20,2013-02-21 17:53:00
12:53 PM,19.9,17.1,89,29.80,0.5,North,12.7,-,0.02,Fog,Light Freezing Fog,10,2013-02-21 18:53:00
1:11 PM,21.2,17.6,86,29.75,0.8,North,15.0,-,0.01,,Mist,360,2013-02-21 19:11:00
1:18 PM,21.2,17.6,86,29.75,1.2,North,12.7,-,0.01,,Overcast,360,2013-02-21 19:18:00
1:24 PM,21.2,15.8,80,29.75,2.0,North,16.1,-,0.01,,Haze,350,2013-02-21 19:24:00
1:33 PM,21.2,17.6,86,29.75,5.0,North,16.1,-,0.01,,Haze,350,2013-02-21 19:33:00
1:43 PM,21.2,15.8,80,29.76,10.0,North,17.3,-,0.01,,Overcast,350,2013-02-21 19:43:00
1:53 PM,21.9,17.1,82,29.80,10.0,North,16.1,-,0.01,,Overcast,350,2013-02-21 19:53:00
2:53 PM,23.0,17.1,78,29.81,10.0,NNW,18.4,-,N/A,,Overcast,340,2013-02-21 20:53:00
3:43 PM,23.0,15.8,74,29.78,10.0,NNW,17.3,-,N/A,,Overcast,340,2013-02-21 21:43:00
3:53 PM,23.0,16.0,74,29.83,10.0,NNW,18.4,-,N/A,,Overcast,340,2013-02-21 21:53:00
4:03 PM,24.8,17.6,74,29.78,10.0,NNW,18.4,-,N/A,,Overcast,340,2013-02-21 22:03:00
4:35 PM,23.0,15.8,74,29.80,10.0,NNW,16.1,-,N/A,,Mostly Cloudy,330,2013-02-21 22:35:00
4:53 PM,21.9,15.1,75,29.83,10.0,NNW,18.4,-,N/A,,Partly Cloudy,340,2013-02-21 22:53:00
5:53 PM,21.0,14.0,74,29.87,10.0,NNW,13.8,-,N/A,,Clear,340,2013-02-21 23:53:00
6:53 PM,17.1,12.0,81,29.91,10.0,NW,9.2,-,N/A,,Clear,320,2013-02-22 00:53:00
7:53 PM,16.0,10.9,81,29.95,10.0,West,6.9,-,N/A,,Clear,270,2013-02-22 01:53:00
8:53 PM,14.0,10.0,84,29.97,10.0,WNW,9.2,-,N/A,,Overcast,290,2013-02-22 02:53:00
9:53 PM,12.0,8.1,84,30.00,10.0,NW,12.7,-,N/A,,Overcast,310,2013-02-22 03:53:00
10:53 PM,15.1,10.0,80,30.01,10.0,West,10.4,-,N/A,,Clear,280,2013-02-22 04:53:00
11:35 PM,12.2,8.6,85,29.96,10.0,West,5.8,-,N/A,,Mostly Cloudy,260,2013-02-22 05:35:00
11:53 PM,14.0,10.0,84,30.05,10.0,West,6.9,-,N/A,,Mostly Cloudy,280,2013-02-22 05:53:00